TimeEDT,TemperatureF,Dew PointF,Humidity,Sea Level PressureIn,VisibilityMPH,Wind Direction,Wind SpeedMPH,Gust SpeedMPH,PrecipitationIn,Events,Conditions,WindDirDegrees,DateUTC
12:12 AM,60.8,59.0,94,29.88,7.0,Calm,Calm,-,N/A,,Overcast,0,2013-05-12 04:12:00
12:53 AM,61.0,59.0,93,29.83,7.0,WNW,4.6,-,0.01,Rain,Light Rain,290,2013-05-12 04:53:00
1:53 AM,61.0,57.9,90,29.82,10.0,West,3.5,-,0.00,,Overcast,270,2013-05-12 05:53:00
2:53 AM,59.0,54.0,83,29.83,10.0,North,3.5,-,N/A,,Scattered Clouds,360,2013-05-12 06:53:00
3:53 AM,55.0,48.9,80,29.83,10.0,NW,5.8,-,N/A,,Clear,320,2013-05-12 07:53:00
4:53 AM,55.0,46.9,74,29.83,10.0,NNW,3.5,-,N/A,,Clear,330,2013-05-12 08:53:00
5:53 AM,52.0,48.0,86,29.85,10.0,Calm,Calm,-,N/A,,Clear,0,2013-05-12 09:53:00
6:53 AM,53.1,46.0,77,29.88,10.0,North,4.6,-,N/A,,Clear,10,2013-05-12 10:53:00
7:53 AM,55.0,48.9,80,29.89,10.0,Calm,Calm,-,N/A,,Clear,0,2013-05-12 11:53:00
8:53 AM,59.0,50.0,72,29.90,10.0,Calm,Calm,-,N/A,,Clear,0,2013-05-12 12:53:00
9:53 AM,63.0,48.0,58,29.91,10.0,West,6.9,-,N/A,,Clear,270,2013-05-12 13:53:00
10:53 AM,64.0,46.0,52,29.90,10.0,WNW,11.5,-,N/A,,Partly Cloudy,290,2013-05-12 14:53:00
11:53 AM,64.9,43.0,45,29.91,10.0,West,9.2,-,N/A,,Clear,260,2013-05-12 15:53:00
12:53 PM,66.9,41.0,39,29.91,10.0,West,11.5,19.6,N/A,,Scattered Clouds,280,2013-05-12 16:53:00
1:53 PM,66.9,37.0,33,29.91,10.0,NW,13.8,20.7,N/A,,Clear,310,2013-05-12 17:53:00
2:53 PM,68.0,37.0,32,29.91,10.0,Variable,5.8,19.6,N/A,,Clear,0,2013-05-12 18:53:00
3:53 PM,68.0,36.0,31,29.90,10.0,NW,12.7,17.3,N/A,,Clear,310,2013-05-12 19:53:00
4:53 PM,68.0,37.0,32,29.90,10.0,NW,12.7,23.0,N/A,,Clear,320,2013-05-12 20:53:00
5:53 PM,66.0,33.1,29,29.92,10.0,NNW,12.7,18.4,N/A,,Clear,340,2013-05-12 21:53:00
6:53 PM,64.0,32.0,30,29.94,10.0,NNW,8.1,-,N/A,,Clear,340,2013-05-12 22:53:00
7:53 PM,60.1,33.1,36,29.96,10.0,NNW,6.9,-,N/A,,Clear,340,2013-05-12 23:53:00
8:53 PM,57.0,30.9,37,29.97,10.0,NNW,6.9,-,N/A,,Clear,340,2013-05-13 00:53:00
9:53 PM,55.0,32.0,42,30.00,10.0,NW,4.6,-,N/A,,Clear,320,2013-05-13 01:53:00
10:53 PM,53.1,33.1,47,30.01,10.0,NNW,4.6,-,N/A,,Clear,340,2013-05-13 02:53:00
11:53 PM,52.0,32.0,47,30.02,10.0,NNW,5.8,-,N/A,,Clear,330,2013-05-13 03:53:00